Flag for Canada Weather past 2 weeks in Abbotsford, British Columbia, Canada

Now
54 °F

Partly sunny.


Feels Like: 53 °F
Forecast: 46 / 56 °F
Wind: 3 mph from North

Location: Abbotsford

Current Time: Jan 25, 2015 at 10:45:14 AM

Latest Report: Jan 25, 2015 at 10:00 AM


Visibility: 10 mi

Pressure: 30.18 "Hg

Humidity: 100%

Dew point: 54 °F

Location of AbbotsfordLocation

Historic Weather in Abbotsford — Graph

°F

Abbotsford temperature yesterday

Maximum temperature yesterday: 55 °F (at 5:49 PM)
Minimum temperature yesterday: 52 °F (at 5:00 AM)
Average temperature yesterday: 53 °F

Past Weeks' High & Low Weather Summary

 TemperatureHumidityPressure
High55 °F (Jan 23, 6:00 PM)100% (Jan 10, 9:00 AM)30.50 "Hg (Jan 10, 9:00 AM)
Low28 °F (Jan 13, 8:00 AM)58% (Jan 14, 2:00 PM)29.49 "Hg (Jan 18, 2:00 AM)
Average42 °F92%30.21 "Hg
* Reported Jan 10 9:00 AM — Jan 25 9:00 AM, Abbotsford, Weather by CustomWeather, © 2014

Note: Actual official high and low records may vary slightly from our data, if they occured in-between our weather recording intervals... More about our weather records

Advertising

Abbotsford weather history for previous 24 hours

 ConditionsComfort  
Time TempWeatherWind HumidityBarometerVisibility
9:00 AM
Jan 25
52 °FMostly cloudy.5 mph100%30.18 "Hg8 mi
8:00 AM54 °FFog.2 mph94%30.18 "Hg4 mi
7:00 AM54 °FPartly cloudy.2 mph94%30.19 "Hg8 mi
6:00 AM54 °FPassing clouds.8 mph94%30.19 "Hg10 mi
5:00 AM52 °FPassing clouds.13 mph100%30.19 "Hg10 mi
4:00 AM52 °FPassing clouds.6 mph100%30.18 "Hg7 mi
3:00 AM52 °FFog.3 mph100%30.19 "Hg3 mi
2:00 AM52 °FLight rain. Fog.5 mph100%30.20 "Hg3 mi
1:00 AM52 °FLight rain. Fog.7 mph100%30.19 "Hg3 mi
12:00 AM54 °FLight rain. Fog.12 mph100%30.21 "Hg3 mi
11:00 PM
Jan 24
55 °FLight rain. Fog.13 mph94%30.20 "Hg3 mi
10:00 PM55 °FLight rain. Fog.12 mph100%30.18 "Hg3 mi
9:00 PM54 °FLight rain. Fog.7 mph100%30.18 "Hg3 mi
8:00 PM54 °FFog.6 mph100%30.18 "Hg4 mi
7:00 PM54 °FFog.5 mph100%30.19 "Hg2 mi
6:00 PM55 °FLight rain. Fog.9 mph100%30.19 "Hg2 mi
5:49 PM55 °FLight rain. Fog.8 mph100%30.19 "Hg3 mi
5:00 PM54 °FFog.5 mph100%30.19 "Hg4 mi
4:57 PM54 °FFog.3 mph100%30.19 "Hg4 mi
4:00 PM54 °FLight rain. Fog.No wind100%30.20 "Hg2 mi
3:00 PM54 °FLight rain. Fog.2 mph100%30.20 "Hg2 mi
2:00 PM54 °FLight rain. Fog.2 mph100%30.23 "Hg1 mi
1:00 PM54 °FLight rain. Fog.2 mph100%30.24 "Hg1 mi
12:00 PM54 °FLight rain. Fog.3 mph100%30.26 "Hg1 mi
11:00 AM52 °FRain. Fog.2 mph100%30.27 "Hg2 mi
10:00 AM52 °FRain. Fog.3 mph100%30.27 "Hg2 mi
Weather by CustomWeather, © 2014

See weather overviewHow to use our weather pages